Year,Month,Day,Hour,Minute,Value (Times are PST for windspeed in km/hr)
2010,05,04,00,00,21.10
2010,05,04,00,01,11.30
2010,05,04,00,02,15.60
2010,05,04,00,03,14.90
2010,05,04,00,04,13.70
2010,05,04,00,05,16.10
2010,05,04,00,06,17.40
2010,05,04,00,07,13.40
2010,05,04,00,08,21.80
2010,05,04,00,09,19.10
2010,05,04,00,10,9.50
2010,05,04,00,11,14.60
2010,05,04,00,12,15.80
2010,05,04,00,13,14.20
2010,05,04,00,14,14.60
2010,05,04,00,15,16.00
2010,05,04,00,16,22.50
2010,05,04,00,17,13.50
2010,05,04,00,18,11.90
2010,05,04,00,19,21.10
2010,05,04,00,20,16.00
2010,05,04,00,21,15.40
2010,05,04,00,22,11.80
2010,05,04,00,23,11.40
2010,05,04,00,24,24.10
2010,05,04,00,25,15.80
2010,05,04,00,26,19.90
2010,05,04,00,27,21.10
2010,05,04,00,28,13.10
2010,05,04,00,29,16.80
2010,05,04,00,30,20.70
2010,05,04,00,31,10.90
2010,05,04,00,32,8.40
2010,05,04,00,33,11.80
2010,05,04,00,34,10.20
2010,05,04,00,35,9.20
2010,05,04,00,36,6.40
2010,05,04,00,37,3.70
2010,05,04,00,38,5.60
2010,05,04,00,39,11.50
2010,05,04,00,40,7.20
2010,05,04,00,41,8.50
2010,05,04,00,42,8.70
2010,05,04,00,43,7.00
2010,05,04,00,44,13.20
2010,05,04,00,45,10.70
2010,05,04,00,46,6.40
2010,05,04,00,47,12.30
2010,05,04,00,48,7.60
2010,05,04,00,49,6.40
2010,05,04,00,50,5.70
2010,05,04,00,51,4.70
2010,05,04,00,52,7.10
2010,05,04,00,53,9.70
2010,05,04,00,54,6.70
2010,05,04,00,55,4.80
2010,05,04,00,56,4.70
2010,05,04,00,57,3.90
2010,05,04,00,58,9.40
2010,05,04,00,59,5.00
2010,05,04,01,00,1.90
2010,05,04,01,01,3.10
2010,05,04,01,02,5.70
2010,05,04,01,03,5.10
2010,05,04,01,04,5.60
2010,05,04,01,05,5.70
2010,05,04,01,06,4.60
2010,05,04,01,07,6.40
2010,05,04,01,08,3.80
2010,05,04,01,09,6.80
2010,05,04,01,10,5.30
2010,05,04,01,11,4.80
2010,05,04,01,12,7.20
2010,05,04,01,13,5.30
2010,05,04,01,14,8.20
2010,05,04,01,15,9.80
2010,05,04,01,16,10.10
2010,05,04,01,17,11.60
2010,05,04,01,18,6.00
2010,05,04,01,19,6.10
2010,05,04,01,20,6.20
2010,05,04,01,21,3.20
2010,05,04,01,22,3.00
2010,05,04,01,23,4.60
2010,05,04,01,24,6.20
2010,05,04,01,25,5.00
2010,05,04,01,26,8.10
2010,05,04,01,27,7.30
2010,05,04,01,28,8.90
2010,05,04,01,29,6.20
2010,05,04,01,30,6.40
2010,05,04,01,31,8.30
2010,05,04,01,32,7.30
2010,05,04,01,33,4.00
2010,05,04,01,34,8.40
2010,05,04,01,35,9.80
2010,05,04,01,36,7.60
2010,05,04,01,37,5.40
2010,05,04,01,38,9.70
2010,05,04,01,39,8.50
2010,05,04,01,40,5.00
2010,05,04,01,41,7.70
2010,05,04,01,42,4.90
2010,05,04,01,43,8.90
2010,05,04,01,44,11.50
2010,05,04,01,45,13.80
2010,05,04,01,46,14.80
2010,05,04,01,47,11.80
2010,05,04,01,48,11.00
2010,05,04,01,49,14.40
2010,05,04,01,50,14.00
2010,05,04,01,51,13.90
2010,05,04,01,52,13.20
2010,05,04,01,53,9.60
2010,05,04,01,54,5.60
2010,05,04,01,55,8.50
2010,05,04,01,56,6.40
2010,05,04,01,57,10.20
2010,05,04,01,58,5.70
2010,05,04,01,59,7.60
2010,05,04,02,00,6.20
2010,05,04,02,01,7.00
2010,05,04,02,02,3.70
2010,05,04,02,03,6.60
2010,05,04,02,04,4.40
2010,05,04,02,05,7.60
2010,05,04,02,06,3.60
2010,05,04,02,07,3.60
2010,05,04,02,08,5.40
2010,05,04,02,09,11.70
2010,05,04,02,10,10.80
2010,05,04,02,11,3.80
2010,05,04,02,12,4.90
2010,05,04,02,13,5.90
2010,05,04,02,14,9.70
2010,05,04,02,15,7.40
2010,05,04,02,16,11.30
2010,05,04,02,17,10.20
2010,05,04,02,18,14.60
2010,05,04,02,19,13.60
2010,05,04,02,20,9.90
2010,05,04,02,21,4.80
2010,05,04,02,22,3.50
2010,05,04,02,23,5.10
2010,05,04,02,24,7.60
2010,05,04,02,25,6.40
2010,05,04,02,26,3.90
2010,05,04,02,27,3.90
2010,05,04,02,28,3.40
2010,05,04,02,29,0.70
2010,05,04,02,30,1.00
2010,05,04,02,31,3.30
2010,05,04,02,32,3.80
2010,05,04,02,33,4.60
2010,05,04,02,34,0.90
2010,05,04,02,35,1.10
2010,05,04,02,36,1.80
2010,05,04,02,37,2.30
2010,05,04,02,38,3.30
2010,05,04,02,39,2.10
2010,05,04,02,40,0.70
2010,05,04,02,41,4.80
2010,05,04,02,42,13.40
2010,05,04,02,43,7.10
2010,05,04,02,44,6.90
2010,05,04,02,45,10.50
2010,05,04,02,46,10.00
2010,05,04,02,47,4.40
2010,05,04,02,48,2.40
2010,05,04,02,49,3.60
2010,05,04,02,50,3.80
2010,05,04,02,51,0.30
2010,05,04,02,52,4.70
2010,05,04,02,53,6.20
2010,05,04,02,54,4.00
2010,05,04,02,55,6.00
2010,05,04,02,56,5.10
2010,05,04,02,57,2.60
2010,05,04,02,58,3.10
2010,05,04,02,59,3.90
2010,05,04,03,00,7.50
2010,05,04,03,01,11.80
2010,05,04,03,02,22.50
2010,05,04,03,03,14.80
2010,05,04,03,04,9.90
2010,05,04,03,05,7.20
2010,05,04,03,06,5.80
2010,05,04,03,07,6.00
2010,05,04,03,08,6.70
2010,05,04,03,09,6.50
2010,05,04,03,10,5.70
2010,05,04,03,11,5.20
2010,05,04,03,12,1.90
2010,05,04,03,13,7.40
2010,05,04,03,14,6.50
2010,05,04,03,15,6.50
2010,05,04,03,16,8.10
2010,05,04,03,17,4.80
2010,05,04,03,18,6.40
2010,05,04,03,19,5.30
2010,05,04,03,20,7.70
2010,05,04,03,21,9.70
2010,05,04,03,22,5.20
2010,05,04,03,23,3.80
2010,05,04,03,24,2.50
2010,05,04,03,25,5.40
2010,05,04,03,26,3.30
2010,05,04,03,27,0.50
2010,05,04,03,28,5.10
2010,05,04,03,29,3.70
2010,05,04,03,30,1.30
2010,05,04,03,31,0.20
2010,05,04,03,32,4.70
2010,05,04,03,33,3.10
2010,05,04,03,34,7.10
2010,05,04,03,35,9.20
2010,05,04,03,36,5.00
2010,05,04,03,37,6.80
2010,05,04,03,38,5.60
2010,05,04,03,39,5.60
2010,05,04,03,40,7.60
2010,05,04,03,41,7.50
2010,05,04,03,42,14.60
2010,05,04,03,43,11.10
2010,05,04,03,44,7.50
2010,05,04,03,45,6.20
2010,05,04,03,46,5.20
2010,05,04,03,47,7.40
2010,05,04,03,48,10.40
2010,05,04,03,49,7.00
2010,05,04,03,50,9.70
2010,05,04,03,51,9.70
2010,05,04,03,52,9.30
2010,05,04,03,53,7.30
2010,05,04,03,54,6.50
2010,05,04,03,55,15.10
2010,05,04,03,56,7.00
2010,05,04,03,57,7.60
2010,05,04,03,58,9.30
2010,05,04,03,59,7.50
2010,05,04,04,00,5.10
2010,05,04,04,01,7.10
2010,05,04,04,02,9.90
2010,05,04,04,03,9.30
2010,05,04,04,04,6.90
2010,05,04,04,05,6.30
2010,05,04,04,06,5.10
2010,05,04,04,07,8.10
2010,05,04,04,08,7.30
2010,05,04,04,09,6.90
2010,05,04,04,10,7.90
2010,05,04,04,11,7.20
2010,05,04,04,12,3.90
2010,05,04,04,13,4.60
2010,05,04,04,14,5.00
2010,05,04,04,15,10.40
2010,05,04,04,16,9.30
2010,05,04,04,17,9.80
2010,05,04,04,18,8.00
2010,05,04,04,19,11.60
2010,05,04,04,20,8.10
2010,05,04,04,21,4.20
2010,05,04,04,22,2.80
2010,05,04,04,23,3.10
2010,05,04,04,24,3.20
2010,05,04,04,25,6.60
2010,05,04,04,26,3.80
2010,05,04,04,27,6.40
2010,05,04,04,28,10.30
2010,05,04,04,29,7.60
2010,05,04,04,30,9.70
2010,05,04,04,31,5.10
2010,05,04,04,32,6.50
2010,05,04,04,33,7.40
2010,05,04,04,34,6.80
2010,05,04,04,35,5.70
2010,05,04,04,36,5.10
2010,05,04,04,37,9.00
2010,05,04,04,38,5.30
2010,05,04,04,39,4.30
2010,05,04,04,40,6.60
2010,05,04,04,41,8.90
2010,05,04,04,42,11.10
2010,05,04,04,43,8.50
2010,05,04,04,44,3.40
2010,05,04,04,45,4.70
2010,05,04,04,46,7.30
2010,05,04,04,47,11.90
2010,05,04,04,48,5.90
2010,05,04,04,49,6.00
2010,05,04,04,50,5.00
2010,05,04,04,51,11.60
2010,05,04,04,52,8.30
2010,05,04,04,53,18.30
2010,05,04,04,54,11.40
2010,05,04,04,55,7.70
2010,05,04,04,56,13.20
2010,05,04,04,57,11.30
2010,05,04,04,58,14.60
2010,05,04,04,59,12.20
2010,05,04,05,00,15.40
2010,05,04,05,01,16.70
2010,05,04,05,02,19.60
2010,05,04,05,03,6.30
2010,05,04,05,04,9.10
2010,05,04,05,05,9.20
2010,05,04,05,06,9.20
2010,05,04,05,07,10.50
2010,05,04,05,08,9.70
2010,05,04,05,09,11.20
2010,05,04,05,10,12.70
2010,05,04,05,11,16.30
2010,05,04,05,12,14.90
2010,05,04,05,13,16.40
2010,05,04,05,14,14.10
2010,05,04,05,15,17.60
2010,05,04,05,16,12.20
2010,05,04,05,17,7.90
2010,05,04,05,18,11.00
2010,05,04,05,19,14.10
2010,05,04,05,20,7.10
2010,05,04,05,21,8.10
2010,05,04,05,22,4.80
2010,05,04,05,23,6.30
2010,05,04,05,24,5.00
2010,05,04,05,25,5.50
2010,05,04,05,26,5.30
2010,05,04,05,27,6.40
2010,05,04,05,28,7.10
2010,05,04,05,29,5.80
2010,05,04,05,30,3.70
2010,05,04,05,31,5.20
2010,05,04,05,32,4.20
2010,05,04,05,33,6.90
2010,05,04,05,34,3.90
2010,05,04,05,35,1.40
2010,05,04,05,36,1.20
2010,05,04,05,37,4.40
2010,05,04,05,38,4.80
2010,05,04,05,39,4.30
2010,05,04,05,40,6.10
2010,05,04,05,41,7.90
2010,05,04,05,42,8.30
2010,05,04,05,43,6.40
2010,05,04,05,44,5.40
2010,05,04,05,45,3.50
2010,05,04,05,46,7.10
2010,05,04,05,47,8.70
2010,05,04,05,48,8.50
2010,05,04,05,49,7.20
2010,05,04,05,50,6.10
2010,05,04,05,51,14.10
2010,05,04,05,52,12.80
2010,05,04,05,53,7.00
2010,05,04,05,54,11.50
2010,05,04,05,55,10.80
2010,05,04,05,56,8.10
2010,05,04,05,57,6.60
2010,05,04,05,58,8.40
2010,05,04,05,59,7.00
2010,05,04,06,00,8.50
2010,05,04,06,01,9.40
2010,05,04,06,02,8.80
2010,05,04,06,03,11.30
2010,05,04,06,04,5.70
2010,05,04,06,05,4.70
2010,05,04,06,06,5.70
2010,05,04,06,07,8.30
2010,05,04,06,08,16.30
2010,05,04,06,09,8.00
2010,05,04,06,10,9.30
2010,05,04,06,11,6.30
2010,05,04,06,12,7.20
2010,05,04,06,13,5.50
2010,05,04,06,14,7.10
2010,05,04,06,15,10.00
2010,05,04,06,16,12.60
2010,05,04,06,17,7.20
2010,05,04,06,18,5.60
2010,05,04,06,19,2.50
2010,05,04,06,20,4.80
2010,05,04,06,21,7.90
2010,05,04,06,22,9.60
2010,05,04,06,23,6.40
2010,05,04,06,24,7.60
2010,05,04,06,25,1.90
2010,05,04,06,26,2.50
2010,05,04,06,27,3.00
2010,05,04,06,28,3.10
2010,05,04,06,29,4.50
2010,05,04,06,30,7.40
2010,05,04,06,31,3.00
2010,05,04,06,32,3.80
2010,05,04,06,33,0.20
2010,05,04,06,34,1.80
2010,05,04,06,35,1.90
2010,05,04,06,36,1.60
2010,05,04,06,37,0.00
2010,05,04,06,38,0.00
2010,05,04,06,39,0.00
2010,05,04,06,40,0.10
2010,05,04,06,41,1.10
2010,05,04,06,42,1.40
2010,05,04,06,43,0.20
2010,05,04,06,44,0.70
2010,05,04,06,45,0.10
2010,05,04,06,46,3.10
2010,05,04,06,47,5.00
2010,05,04,06,48,1.90
2010,05,04,06,49,0.10
2010,05,04,06,50,0.30
2010,05,04,06,51,0.10
2010,05,04,06,52,0.90
2010,05,04,06,53,0.20
2010,05,04,06,54,0.30
2010,05,04,06,55,0.40
2010,05,04,06,56,1.80
2010,05,04,06,57,2.60
2010,05,04,06,58,1.10
2010,05,04,06,59,2.50
2010,05,04,07,00,1.90
2010,05,04,07,01,4.60
2010,05,04,07,02,3.30
2010,05,04,07,03,3.60
2010,05,04,07,04,5.00
2010,05,04,07,05,2.90
2010,05,04,07,06,3.80
2010,05,04,07,07,2.50
2010,05,04,07,08,7.50
2010,05,04,07,09,11.00
2010,05,04,07,10,6.00
2010,05,04,07,11,5.50
2010,05,04,07,12,5.90
2010,05,04,07,13,10.80
2010,05,04,07,14,10.50
2010,05,04,07,15,11.70
2010,05,04,07,16,13.00
2010,05,04,07,17,10.60
2010,05,04,07,18,4.50
2010,05,04,07,19,6.00
2010,05,04,07,20,6.80
2010,05,04,07,21,5.60
2010,05,04,07,22,8.80
2010,05,04,07,23,5.10
2010,05,04,07,24,2.10
2010,05,04,07,25,6.20
2010,05,04,07,26,4.90
2010,05,04,07,27,6.20
2010,05,04,07,28,4.90
2010,05,04,07,29,7.50
2010,05,04,07,30,7.70
2010,05,04,07,31,9.60
2010,05,04,07,32,9.10
2010,05,04,07,33,10.00
2010,05,04,07,34,8.90
2010,05,04,07,35,7.00
2010,05,04,07,36,11.60
2010,05,04,07,37,10.10
2010,05,04,07,38,8.60
2010,05,04,07,39,7.00
2010,05,04,07,40,10.60
2010,05,04,07,41,12.20
2010,05,04,07,42,13.80
2010,05,04,07,43,16.00
2010,05,04,07,44,16.10
2010,05,04,07,45,17.20
2010,05,04,07,46,20.10
2010,05,04,07,47,23.30
2010,05,04,07,48,16.90
2010,05,04,07,49,14.10
2010,05,04,07,50,16.40
2010,05,04,07,51,8.60
2010,05,04,07,52,12.20
2010,05,04,07,53,15.20
2010,05,04,07,54,12.20
2010,05,04,07,55,11.90
2010,05,04,07,56,8.50
2010,05,04,07,57,10.30
2010,05,04,07,58,12.50
2010,05,04,07,59,10.70
2010,05,04,08,00,7.00
2010,05,04,08,01,14.40
2010,05,04,08,02,16.90
2010,05,04,08,03,12.40
2010,05,04,08,04,11.00
2010,05,04,08,05,9.20
2010,05,04,08,06,12.30
2010,05,04,08,07,12.90
2010,05,04,08,08,9.00
2010,05,04,08,09,9.90
2010,05,04,08,10,9.00
2010,05,04,08,11,13.30
2010,05,04,08,12,8.00
2010,05,04,08,13,7.20
2010,05,04,08,14,7.40
2010,05,04,08,15,7.60
2010,05,04,08,16,7.90
2010,05,04,08,17,8.80
2010,05,04,08,18,9.00
2010,05,04,08,19,8.90
2010,05,04,08,20,9.30
2010,05,04,08,21,10.70
2010,05,04,08,22,14.40
2010,05,04,08,23,9.30
2010,05,04,08,24,7.00
2010,05,04,08,25,9.60
2010,05,04,08,26,10.70
2010,05,04,08,27,9.70
2010,05,04,08,28,9.20
2010,05,04,08,29,7.40
2010,05,04,08,30,6.00
2010,05,04,08,31,11.90
2010,05,04,08,32,11.50
2010,05,04,08,33,11.70
2010,05,04,08,34,11.20
2010,05,04,08,35,11.10
2010,05,04,08,36,13.50
2010,05,04,08,37,14.60
2010,05,04,08,38,9.70
2010,05,04,08,39,7.70
2010,05,04,08,40,10.80
2010,05,04,08,41,15.40
2010,05,04,08,42,10.90
2010,05,04,08,43,9.80
2010,05,04,08,44,16.70
2010,05,04,08,45,10.50
2010,05,04,08,46,10.80
2010,05,04,08,47,14.70
2010,05,04,08,48,9.80
2010,05,04,08,49,8.80
2010,05,04,08,50,5.70
2010,05,04,08,51,6.80
2010,05,04,08,52,15.50
2010,05,04,08,53,13.10
2010,05,04,08,54,11.90
2010,05,04,08,55,7.30
2010,05,04,08,56,9.20
2010,05,04,08,57,6.80
2010,05,04,08,58,9.60
2010,05,04,08,59,5.50
2010,05,04,09,00,4.80
2010,05,04,09,01,7.50
2010,05,04,09,02,6.60
2010,05,04,09,03,4.30
2010,05,04,09,04,6.20
2010,05,04,09,05,15.30
2010,05,04,09,06,9.60
2010,05,04,09,07,14.40
2010,05,04,09,08,9.50
2010,05,04,09,09,7.10
2010,05,04,09,10,5.50
2010,05,04,09,11,8.00
2010,05,04,09,12,11.80
2010,05,04,09,13,13.60
2010,05,04,09,14,8.90
2010,05,04,09,15,5.70
2010,05,04,09,16,8.00
2010,05,04,09,17,6.70
2010,05,04,09,18,5.50
2010,05,04,09,19,8.60
2010,05,04,09,20,7.40
2010,05,04,09,21,7.00
2010,05,04,09,22,5.40
2010,05,04,09,23,5.00
2010,05,04,09,24,6.60
2010,05,04,09,25,3.90
2010,05,04,09,26,8.10
2010,05,04,09,27,9.00
2010,05,04,09,28,4.90
2010,05,04,09,29,10.10
2010,05,04,09,30,11.20
2010,05,04,09,31,7.40
2010,05,04,09,32,4.00
2010,05,04,09,33,7.10
2010,05,04,09,34,4.80
2010,05,04,09,35,7.40
2010,05,04,09,36,10.70
2010,05,04,09,37,8.50
2010,05,04,09,38,9.70
2010,05,04,09,39,8.90
2010,05,04,09,40,5.80
2010,05,04,09,41,10.50
2010,05,04,09,42,7.70
2010,05,04,09,43,6.70
2010,05,04,09,44,9.30
2010,05,04,09,45,8.40
2010,05,04,09,46,11.60
2010,05,04,09,47,11.30
2010,05,04,09,48,10.00
2010,05,04,09,49,4.40
2010,05,04,09,50,10.00
2010,05,04,09,51,10.00
2010,05,04,09,52,9.50
2010,05,04,09,53,13.30
2010,05,04,09,54,10.70
2010,05,04,09,55,3.20
2010,05,04,09,56,5.40
2010,05,04,09,57,4.70
2010,05,04,09,58,8.30
2010,05,04,09,59,7.60
2010,05,04,10,00,4.90
2010,05,04,10,01,5.60
2010,05,04,10,02,9.30
2010,05,04,10,03,8.40
2010,05,04,10,04,8.60
2010,05,04,10,05,13.00
2010,05,04,10,06,6.00
2010,05,04,10,07,6.40
2010,05,04,10,08,6.30
2010,05,04,10,09,6.00
2010,05,04,10,10,9.20
2010,05,04,10,11,7.90
2010,05,04,10,12,7.10
2010,05,04,10,13,10.10
2010,05,04,10,14,10.00
2010,05,04,10,15,8.10
2010,05,04,10,16,5.90
2010,05,04,10,17,5.40
2010,05,04,10,18,6.90
2010,05,04,10,19,4.70
2010,05,04,10,20,8.30
2010,05,04,10,21,11.40
2010,05,04,10,22,8.20
2010,05,04,10,23,9.10
2010,05,04,10,24,7.30
2010,05,04,10,25,8.40
2010,05,04,10,26,8.50
2010,05,04,10,27,9.60
2010,05,04,10,28,9.80
2010,05,04,10,29,7.70
2010,05,04,10,30,8.70
2010,05,04,10,31,11.80
2010,05,04,10,32,12.30
2010,05,04,10,33,10.70
2010,05,04,10,34,8.60
2010,05,04,10,35,5.80
2010,05,04,10,36,12.70
2010,05,04,10,37,11.50
2010,05,04,10,38,15.80
2010,05,04,10,39,13.50
2010,05,04,10,40,16.70
2010,05,04,10,41,12.80
2010,05,04,10,42,12.50
2010,05,04,10,43,10.50
2010,05,04,10,44,17.00
2010,05,04,10,45,19.60
2010,05,04,10,46,19.40
2010,05,04,10,47,12.20
2010,05,04,10,48,15.90
2010,05,04,10,49,14.70
2010,05,04,10,50,15.50
2010,05,04,10,51,21.80
2010,05,04,10,52,19.60
2010,05,04,10,53,20.90
2010,05,04,10,54,18.70
2010,05,04,10,55,16.80
2010,05,04,10,56,18.30
2010,05,04,10,57,20.40
2010,05,04,10,58,18.00
2010,05,04,10,59,14.90
2010,05,04,11,00,18.50
2010,05,04,11,01,19.70
2010,05,04,11,02,17.50
2010,05,04,11,03,19.50
2010,05,04,11,04,17.70
2010,05,04,11,05,20.70
2010,05,04,11,06,14.90
2010,05,04,11,07,20.30
2010,05,04,11,08,18.60
2010,05,04,11,09,22.70
2010,05,04,11,10,20.40
2010,05,04,11,11,20.80
2010,05,04,11,12,18.90
2010,05,04,11,13,16.90
2010,05,04,11,14,20.00
2010,05,04,11,15,18.50
2010,05,04,11,16,22.50
2010,05,04,11,17,20.40
2010,05,04,11,18,21.40
2010,05,04,11,19,20.30
2010,05,04,11,20,20.00
2010,05,04,11,21,16.40
2010,05,04,11,22,18.10
2010,05,04,11,23,20.20
2010,05,04,11,24,19.10
2010,05,04,11,25,22.00
2010,05,04,11,26,20.40
2010,05,04,11,27,18.20
2010,05,04,11,28,17.80
2010,05,04,11,29,18.50
2010,05,04,11,30,19.70
2010,05,04,11,31,17.80
2010,05,04,11,32,23.10
2010,05,04,11,33,22.50
2010,05,04,11,34,23.30
2010,05,04,11,35,19.70
2010,05,04,11,36,19.40
2010,05,04,11,37,20.40
2010,05,04,11,38,19.20
2010,05,04,11,39,16.90
2010,05,04,11,40,19.70
2010,05,04,11,41,24.30
2010,05,04,11,42,15.50
2010,05,04,11,43,22.80
2010,05,04,11,44,18.00
2010,05,04,11,45,15.50
2010,05,04,11,46,15.40
2010,05,04,11,47,16.10
2010,05,04,11,48,23.30
2010,05,04,11,49,18.10
2010,05,04,11,50,18.80
2010,05,04,11,51,20.80
2010,05,04,11,52,22.30
2010,05,04,11,53,22.40
2010,05,04,11,54,19.50
2010,05,04,11,55,21.60
2010,05,04,11,56,19.80
2010,05,04,11,57,21.40
2010,05,04,11,58,20.10
2010,05,04,11,59,21.20
2010,05,04,12,00,21.60
2010,05,04,12,01,22.90
2010,05,04,12,02,22.50
2010,05,04,12,03,20.50
2010,05,04,12,04,16.70
2010,05,04,12,05,14.20
2010,05,04,12,06,19.10
2010,05,04,12,07,16.30
2010,05,04,12,08,16.60
2010,05,04,12,09,19.00
2010,05,04,12,10,18.80
2010,05,04,12,11,23.60
2010,05,04,12,12,23.80
2010,05,04,12,13,22.80
2010,05,04,12,14,17.60
2010,05,04,12,15,17.70
2010,05,04,12,16,15.10
2010,05,04,12,17,13.40
2010,05,04,12,18,10.20
2010,05,04,12,19,13.00
2010,05,04,12,20,17.90
2010,05,04,12,21,16.30
2010,05,04,12,22,18.00
2010,05,04,12,23,18.10
2010,05,04,12,24,22.20
2010,05,04,12,25,19.30
2010,05,04,12,26,13.80
2010,05,04,12,27,12.50
2010,05,04,12,28,16.40
2010,05,04,12,29,17.40
2010,05,04,12,30,19.70
2010,05,04,12,31,14.70
2010,05,04,12,32,19.50
2010,05,04,12,33,19.80
2010,05,04,12,34,18.20
2010,05,04,12,35,24.00
2010,05,04,12,36,16.90
2010,05,04,12,37,14.70
2010,05,04,12,38,16.90
2010,05,04,12,39,20.30
2010,05,04,12,40,18.30
2010,05,04,12,41,25.10
2010,05,04,12,42,20.30
2010,05,04,12,43,21.90
2010,05,04,12,44,24.10
2010,05,04,12,45,19.60
2010,05,04,12,46,22.60
2010,05,04,12,47,19.40
2010,05,04,12,48,23.80
2010,05,04,12,49,20.80
2010,05,04,12,50,21.10
2010,05,04,12,51,20.40
2010,05,04,12,52,21.60
2010,05,04,12,53,21.10
2010,05,04,12,54,19.10
2010,05,04,12,55,17.10
2010,05,04,12,56,14.90
2010,05,04,12,57,13.70
2010,05,04,12,58,16.30
2010,05,04,12,59,15.70
2010,05,04,13,00,10.50
2010,05,04,13,01,14.50
2010,05,04,13,02,12.30
2010,05,04,13,03,14.90
2010,05,04,13,04,16.20
2010,05,04,13,05,13.30
2010,05,04,13,06,11.10
2010,05,04,13,07,14.10
2010,05,04,13,08,8.60
2010,05,04,13,09,5.00
2010,05,04,13,10,6.50
2010,05,04,13,11,10.00
2010,05,04,13,12,13.40
2010,05,04,13,13,13.00
2010,05,04,13,14,13.80
2010,05,04,13,15,9.90
2010,05,04,13,16,10.80
2010,05,04,13,17,12.80
2010,05,04,13,18,10.10
2010,05,04,13,19,12.70
2010,05,04,13,20,8.10
2010,05,04,13,21,11.50
2010,05,04,13,22,15.70
2010,05,04,13,23,14.20
2010,05,04,13,24,21.60
2010,05,04,13,25,19.50
2010,05,04,13,26,18.10
2010,05,04,13,27,15.70
2010,05,04,13,28,16.40
2010,05,04,13,29,14.30
2010,05,04,13,30,16.50
2010,05,04,13,31,23.50
2010,05,04,13,32,17.80
2010,05,04,13,33,20.40
2010,05,04,13,34,21.70
2010,05,04,13,35,20.20
2010,05,04,13,36,16.60
2010,05,04,13,37,20.30
2010,05,04,13,38,19.80
2010,05,04,13,39,20.90
2010,05,04,13,40,23.10
2010,05,04,13,41,23.20
2010,05,04,13,42,21.10
2010,05,04,13,43,19.00
2010,05,04,13,44,22.90
2010,05,04,13,45,23.90
2010,05,04,13,46,22.30
2010,05,04,13,47,18.40
2010,05,04,13,48,17.50
2010,05,04,13,49,22.10
2010,05,04,13,50,19.10
2010,05,04,13,51,15.00
2010,05,04,13,52,22.00
2010,05,04,13,53,25.60
2010,05,04,13,54,25.10
2010,05,04,13,55,23.70
2010,05,04,13,56,24.40
2010,05,04,13,57,21.00
2010,05,04,13,58,21.00
2010,05,04,13,59,20.50
2010,05,04,14,00,21.90
2010,05,04,14,01,23.70
2010,05,04,14,02,27.10
2010,05,04,14,03,24.70
2010,05,04,14,04,24.50
2010,05,04,14,05,19.10
2010,05,04,14,06,25.90
2010,05,04,14,07,23.30
2010,05,04,14,08,24.00
2010,05,04,14,09,22.60
2010,05,04,14,10,20.20
2010,05,04,14,11,20.80
2010,05,04,14,12,19.30
2010,05,04,14,13,19.70
2010,05,04,14,14,18.90
2010,05,04,14,15,17.00
2010,05,04,14,16,18.40
2010,05,04,14,17,16.60
2010,05,04,14,18,13.00
2010,05,04,14,19,16.80
2010,05,04,14,20,17.00
2010,05,04,14,21,22.30
2010,05,04,14,22,18.30
2010,05,04,14,23,13.80
2010,05,04,14,24,13.60
2010,05,04,14,25,19.20
2010,05,04,14,26,17.20
2010,05,04,14,27,20.20
2010,05,04,14,28,16.00
2010,05,04,14,29,17.70
2010,05,04,14,30,18.30
2010,05,04,14,31,17.40
2010,05,04,14,32,12.00
2010,05,04,14,33,18.40
2010,05,04,14,34,19.00
2010,05,04,14,35,21.80
2010,05,04,14,36,22.50
2010,05,04,14,37,21.70
2010,05,04,14,38,22.30
2010,05,04,14,39,24.60
2010,05,04,14,40,22.60
2010,05,04,14,41,22.10
2010,05,04,14,42,22.90
2010,05,04,14,43,22.80
2010,05,04,14,44,24.30
2010,05,04,14,45,21.90
2010,05,04,14,46,18.10
2010,05,04,14,47,14.10
2010,05,04,14,48,19.60
2010,05,04,14,49,17.50
2010,05,04,14,50,24.90
2010,05,04,14,51,20.50
2010,05,04,14,52,20.90
2010,05,04,14,53,12.30
2010,05,04,14,54,20.10
2010,05,04,14,55,19.60
2010,05,04,14,56,18.80
2010,05,04,14,57,18.80
2010,05,04,14,58,16.70
2010,05,04,14,59,22.10
2010,05,04,15,00,18.70
2010,05,04,15,01,12.50
2010,05,04,15,02,18.30
2010,05,04,15,03,21.50
2010,05,04,15,04,19.10
2010,05,04,15,05,24.80
2010,05,04,15,06,17.40
2010,05,04,15,07,17.60
2010,05,04,15,08,12.50
2010,05,04,15,09,25.50
2010,05,04,15,10,15.50
2010,05,04,15,11,20.20
2010,05,04,15,12,18.60
2010,05,04,15,13,21.60
2010,05,04,15,14,19.00
2010,05,04,15,15,17.20
2010,05,04,15,16,15.20
2010,05,04,15,17,24.30
2010,05,04,15,18,19.60
2010,05,04,15,19,20.30
2010,05,04,15,20,13.50
2010,05,04,15,21,12.80
2010,05,04,15,22,19.70
2010,05,04,15,23,16.80
2010,05,04,15,24,15.20
2010,05,04,15,25,15.50
2010,05,04,15,26,16.00
2010,05,04,15,27,17.10
2010,05,04,15,28,18.40
2010,05,04,15,29,24.70
2010,05,04,15,30,16.30
2010,05,04,15,31,14.20
2010,05,04,15,32,10.00
2010,05,04,15,33,17.90
2010,05,04,15,34,18.70
2010,05,04,15,35,16.50
2010,05,04,15,36,16.80
2010,05,04,15,37,16.30
2010,05,04,15,38,18.90
2010,05,04,15,39,14.30
2010,05,04,15,40,11.00
2010,05,04,15,41,11.40
2010,05,04,15,42,8.70
2010,05,04,15,43,5.80
2010,05,04,15,44,8.90
2010,05,04,15,45,9.60
2010,05,04,15,46,15.30
2010,05,04,15,47,9.80
2010,05,04,15,48,11.50
2010,05,04,15,49,18.30
2010,05,04,15,50,16.00
2010,05,04,15,51,15.50
2010,05,04,15,52,17.60
2010,05,04,15,53,11.30
2010,05,04,15,54,14.90
2010,05,04,15,55,20.20
2010,05,04,15,56,12.80
2010,05,04,15,57,12.90
2010,05,04,15,58,13.90
2010,05,04,15,59,17.10
2010,05,04,16,00,8.70
2010,05,04,16,01,8.60
2010,05,04,16,02,12.20
2010,05,04,16,03,8.20
2010,05,04,16,04,11.30
2010,05,04,16,05,8.80
2010,05,04,16,06,12.80
2010,05,04,16,07,12.30
2010,05,04,16,08,8.60
2010,05,04,16,09,15.30
2010,05,04,16,10,14.50
2010,05,04,16,11,13.50
2010,05,04,16,12,16.80
2010,05,04,16,13,13.60
2010,05,04,16,14,15.50
2010,05,04,16,15,14.60
2010,05,04,16,16,17.00
2010,05,04,16,17,15.40
2010,05,04,16,18,12.40
2010,05,04,16,19,9.50
2010,05,04,16,20,11.40
2010,05,04,16,21,11.40
2010,05,04,16,22,11.40
2010,05,04,16,23,6.60
2010,05,04,16,24,7.20
2010,05,04,16,25,16.00
2010,05,04,16,26,15.40
2010,05,04,16,27,17.30
2010,05,04,16,28,16.30
2010,05,04,16,29,14.30
2010,05,04,16,30,15.10
2010,05,04,16,31,10.90
2010,05,04,16,32,11.40
2010,05,04,16,33,12.10
2010,05,04,16,34,18.50
2010,05,04,16,35,20.00
2010,05,04,16,36,14.30
2010,05,04,16,37,16.90
2010,05,04,16,38,15.00
2010,05,04,16,39,16.70
2010,05,04,16,40,16.40
2010,05,04,16,41,21.40
2010,05,04,16,42,20.90
2010,05,04,16,43,22.70
2010,05,04,16,44,20.10
2010,05,04,16,45,16.30
2010,05,04,16,46,15.70
2010,05,04,16,47,18.70
2010,05,04,16,48,20.50
2010,05,04,16,49,15.20
2010,05,04,16,50,14.10
2010,05,04,16,51,20.30
2010,05,04,16,52,20.70
2010,05,04,16,53,18.40
2010,05,04,16,54,18.00
2010,05,04,16,55,15.80
2010,05,04,16,56,18.50
2010,05,04,16,57,20.40
2010,05,04,16,58,22.50
2010,05,04,16,59,21.00
2010,05,04,17,00,21.60
2010,05,04,17,01,22.20
2010,05,04,17,02,17.40
2010,05,04,17,03,21.80
2010,05,04,17,04,21.30
2010,05,04,17,05,25.00
2010,05,04,17,06,19.30
2010,05,04,17,07,15.50
2010,05,04,17,08,17.40
2010,05,04,17,09,16.50
2010,05,04,17,10,17.10
2010,05,04,17,11,16.90
2010,05,04,17,12,15.40
2010,05,04,17,13,15.30
2010,05,04,17,14,13.00
2010,05,04,17,15,10.90
2010,05,04,17,16,10.90
2010,05,04,17,17,13.40
2010,05,04,17,18,17.70
2010,05,04,17,19,20.10
2010,05,04,17,20,16.90
2010,05,04,17,21,10.70
2010,05,04,17,22,16.20
2010,05,04,17,23,13.50
2010,05,04,17,24,10.90
2010,05,04,17,25,15.40
2010,05,04,17,26,16.60
2010,05,04,17,27,15.00
2010,05,04,17,28,20.10
2010,05,04,17,29,17.00
2010,05,04,17,30,14.50
2010,05,04,17,31,13.70
2010,05,04,17,32,17.40
2010,05,04,17,33,16.10
2010,05,04,17,34,15.80
2010,05,04,17,35,14.40
2010,05,04,17,36,16.40
2010,05,04,17,37,12.80
2010,05,04,17,38,11.30
2010,05,04,17,39,14.10
2010,05,04,17,40,12.60